Probability
0 0 0 0 0 0 0 0 0 0 0 0 0 0 0 0 0 0 0 0 0 0 0 0 2 5 8 8 6 4 4 3 3 3 3 4 5 6 5 4 3 3 3 2
0 0 0 0 0 0 0 0 0 0 0 0 0 0 0 0 0 0 0 0 0 0 0 0 2 5 7 9 8 5 3 2 2 2 2 2 4 5 5 4 3 3 3 3
0 0 0 0 0 0 0 0 0 0 0 0 0 0 0 0 0 0 0 0 0 0 0 0 1 2 5 8 7 5 3 3 3 3 2 1 2 4 5 4 3 3 3 3
0 0 0 0 0 0 0 0 0 0 0 0 0 0 0 0 0 0 0 0 0 0 0 0 0 1 3 5 4 3 3 3 3 2 1 0 0 2 4 4 4 3 3 3
0 0 0 0 0 0 0 0 0 0 0 0 0 0 0 0 0 0 0 0 0 0 0 0 0 1 3 3 2 2 3 3 3 2 0 0 0 1 3 4 4 3 3 3
0 0 0 0 0 0 0 0 0 0 0 0 0 0 0 0 0 0 0 0 0 0 0 0 0 1 2 2 1 1 2 3 3 2 1 1 0 1 2 4 4 3 3 2
0 0 0 0 0 0 0 0 0 0 0 0 0 0 0 0 0 0 0 0 0 0 0 0 0 0 1 1 0 0 1 2 3 3 3 2 1 1 2 3 3 3 2 2
0 0 0 0 0 0 0 0 0 0 0 0 0 0 0 0 0 0 0 0 0 0 0 0 0 0 0 0 0 0 0 1 3 3 3 3 2 2 2 3 3 3 2 2
0 0 0 0 0 0 0 0 0 0 0 0 0 0 0 0 0 0 0 0 0 0 0 0 0 0 0 0 0 0 0 1 2 3 3 3 3 3 3 3 2 2 2 1
0 0 0 0 0 0 0 0 0 0 0 0 0 0 0 0 0 0 0 0 0 0 0 0 0 0 0 0 0 0 0 0 1 3 3 3 3 2 2 2 1 0 0 0
0 0 0 0 0 0 0 0 0 0 0 0 0 0 0 0 0 0 0 0 0 0 0 0 0 0 0 0 0 0 0 0 1 2 3 3 2 1 0 0 0 0 0 0
0 0 0 0 0 0 0 0 0 0 0 0 0 0 0 0 0 0 0 0 0 0 0 0 0 0 0 0 0 0 0 0 1 2 2 1 1 0 0 0 0 0 0 0
0 0 0 0 0 0 0 0 0 0 0 0 0 0 0 0 0 0 0 0 0 0 0 0 0 0 0 0 0 0 0 0 0 1 1 0 0 0 0 0 0 0 0 0
0 0 0 0 0 0 0 0 0 0 0 0 0 0 0 0 0 0 0 0 0 0 0 0 0 0 0 0 0 0 0 0 0 0 0 0 0 0 0 0 0 0 0 0
0 0 0 0 0 0 0 0 0 0 0 0 0 0 0 0 0 0 0 0 0 0 0 0 0 0 0 0 0 0 0 0 0 0 0 0 0 0 0 0 0 0 0 0
0 0 0 0 0 0 0 0 0 0 0 0 0 0 0 0 0 0 0 0 0 0 0 0 0 0 0 0 0 0 0 0 0 0 0 0 0 0 0 0 0 0 0 0
0 0 0 0 0 0 0 0 0 0 0 0 0 0 0 0 0 0 0 0 0 0 0 0 0 0 0 0 0 0 0 0 0 0 0 0 0 0 0 0 0 0 0 0
0 0 0 0 0 0 0 0 0 0 0 0 0 0 0 0 0 0 0 0 0 0 0 0 0 0 0 0 0 0 0 0 0 0 0 0 0 0 0 0 0 0 0 0
0 0 0 0 0 0 0 0 0 0 0 0 0 0 0 0 0 0 0 0 0 0 0 0 0 0 0 0 0 0 0 0 0 0 0 0 0 0 0 0 0 0 0 0
0 0 0 0 0 0 0 0 0 0 0 0 0 0 0 0 0 0 0 0 0 0 0 0 0 0 0 0 0 0 0 0 0 0 0 0 0 0 0 0 0 0 0 0
0 0 0 0 0 0 0 0 0 0 0 0 0 0 0 0 0 0 0 0 0 0 0 0 0 0 0 0 0 0 0 0 0 0 0 0 0 0 0 0 0 0 0 0
0 0 0 0 0 0 0 0 0 0 0 0 0 0 0 0 0 0 0 0 0 0 0 0 0 0 0 0 0 0 0 0 0 0 0 0 0 0 0 0 0 0 0 0
0 0 0 0 0 0 0 0 0 0 0 0 0 0 0 0 0 0 0 0 0 0 0 0 0 0 0 0 0 0 0 0 0 0 0 0 0 0 0 0 0 0 0 0
0 0 0 0 0 0 0 0 0 0 0 0 0 0 0 0 0 0 0 0 0 0 0 0 0 0 0 0 0 0 0 0 0 0 0 0 0 0 0 0 0 0 0 0
0 0 0 0 0 0 0 0 0 0 0 0 0 0 0 0 0 0 0 0 0 0 0 0 0 0 0 0 0 0 0 0 0 0 0 0 0 0 0 0 0 0 0 0
0 0 0 0 0 0 0 0 0 0 0 0 0 0 0 0 0 0 0 0 0 0 0 0 0 0 0 0 0 0 0 0 0 0 0 0 0 0 0 0 0 0 0 0
Wind_Speed
7 10 14 16 18 14 10 12 14 10 6 10 15 17 14 9 9 11 10 10 10 10 9 8 8 8 8 8 9 10 9 9 8 6 6 6 6 5 5 5 7 8 8 8
7 14 14 11 12 13 13 14 14 9 6 9 12 16 14 12 13 11 11 10 10 9 7 7 7 7 8 9 9 9 10 10 9 7 6 5 5 5 5 4 6 8 8 7
13 7 7 10 11 14 16 16 14 9 5 8 8 13 14 11 11 11 11 10 10 9 9 8 7 8 8 8 9 8 10 10 10 9 6 5 4 4 4 5 5 7 7 7
11 9 7 10 12 13 15 12 11 10 8 7 8 9 9 9 9 10 10 9 9 8 8 7 7 8 8 8 8 9 9 10 9 9 8 9 7 7 7 5 5 6 7 7
7 6 8 11 11 12 9 6 10 11 10 9 10 10 8 6 9 9 7 7 7 7 7 7 7 7 7 7 7 8 9 9 9 9 10 10 8 7 5 6 7 6 6 7
8 5 6 8 7 9 5 4 6 8 8 12 15 13 9 6 8 6 6 6 6 5 5 5 5 5 5 5 6 7 8 8 9 9 10 10 10 9 8 8 7 6 5 5
5 5 4 4 5 7 8 7 6 8 10 11 9 11 8 2 3 5 5 3 3 2 3 4 5 5 5 5 6 7 8 8 8 9 9 10 10 10 10 9 8 7 5 5
4 5 4 3 5 6 10 11 8 8 9 7 9 11 4 2 1 3 3 2 1 1 1 2 4 5 5 5 6 7 8 7 8 8 8 8 8 7 6 8 7 7 5 6
4 4 2 3 4 5 7 9 8 5 4 6 8 5 4 2 1 1 1 1 1 1 0 1 2 3 4 5 6 7 8 7 7 8 8 7 7 7 7 7 7 5 5 5
4 5 3 3 2 4 5 4 5 6 6 8 7 8 5 5 4 2 1 1 1 1 1 1 0 1 2 3 4 6 7 7 7 7 7 6 7 7 7 6 7 6 6 5
4 4 3 2 3 4 4 5 5 5 5 5 6 3 1 2 2 2 2 1 1 0 1 1 0 1 1 2 3 4 5 6 6 6 6 6 6 6 6 6 6 6 6 6
3 3 4 5 2 3 4 4 5 5 5 6 5 1 4 2 2 2 2 2 1 1 1 1 0 1 1 2 2 3 4 5 5 5 5 5 5 5 5 6 6 6 6 6
3 3 4 2 2 1 2 3 4 4 3 5 6 2 3 4 4 3 2 2 2 2 2 1 1 1 1 2 2 2 3 4 4 5 5 5 5 5 5 5 5 5 6 6
4 3 5 6 3 2 4 5 4 4 4 5 7 5 3 5 5 4 3 2 2 2 2 2 1 1 1 1 2 2 2 3 4 4 5 5 5 5 5 5 5 5 6 6
3 4 5 7 6 4 5 6 5 6 8 7 6 6 6 6 5 4 4 3 3 3 2 2 1 1 1 1 1 2 2 2 3 4 4 4 4 4 4 5 5 5 5 5
4 4 4 5 5 4 5 6 6 6 8 8 8 7 5 6 5 4 3 2 3 3 3 2 1 1 1 1 1 1 1 1 3 4 4 4 4 4 4 4 5 5 5 5
3 3 3 4 5 4 4 5 5 4 4 5 6 6 6 5 5 5 3 2 3 3 2 2 1 1 1 1 1 1 1 1 2 3 3 4 4 4 4 4 4 4 5 5
5 4 3 3 2 3 1 3 4 3 1 3 5 6 6 6 6 4 3 3 3 3 2 2 1 1 1 1 1 1 1 2 2 3 3 3 4 4 4 4 4 4 4 5
5 4 2 2 3 3 2 5 6 4 2 5 6 7 7 5 3 2 4 4 3 2 2 2 1 1 1 1 1 2 2 2 3 2 2 3 3 4 4 4 4 4 4 4
0 2 2 2 2 2 5 9 9 4 2 7 8 8 7 5 3 3 5 4 3 3 3 3 3 3 2 2 2 2 2 2 2 2 2 2 2 3 3 4 4 3 4 4
2 1 2 3 3 2 6 10 5 0 4 9 8 7 5 3 4 5 4 4 3 3 3 4 3 3 3 3 2 3 2 2 1 1 2 2 2 2 2 2 3 3 3 3
3 2 1 1 2 2 8 6 4 5 6 7 7 7 5 4 4 4 4 4 4 4 4 4 4 4 4 3 3 4 3 2 2 2 2 2 2 2 2 2 2 3 3 3
3 3 3 1 1 4 5 4 5 6 6 7 7 6 5 4 5 5 5 5 5 5 5 5 5 5 5 5 4 4 3 3 3 3 3 3 3 3 2 2 2 2 2 2
3 4 2 1 2 6 6 7 7 7 6 7 6 5 4 4 4 4 4 5 5 5 5 5 5 5 5 5 5 4 3 3 4 4 4 3 3 3 2 2 1 1 2 2
5 4 3 2 4 5 5 8 9 8 8 7 7 6 5 4 4 4 4 5 5 5 5 5 5 5 5 5 5 5 4 4 4 4 4 3 3 3 3 2 2 1 0 1
4 4 4 3 5 5 7 9 9 8 8 8 7 6 6 5 4 4 4 4 4 4 4 4 5 5 5 5 6 5 5 4 4 4 3 3 2 2 2 2 3 5 3 4
Wind_Direction
201 215 218 218 220 239 245 238 240 238 215 223 236 248 251 243 243 245 244 240 238 238 238 227 215 208 203 201 200 197 192 185 178 176 179 180 184 182 184 186 186 184 181 180
206 227 233 235 229 234 237 239 243 245 219 231 249 255 254 246 241 244 246 243 240 237 228 217 209 206 205 201 199 197 192 185 183 185 184 184 180 184 181 182 187 186 184 182
223 233 232 225 224 226 231 233 236 240 237 234 259 259 244 235 236 242 246 247 244 239 232 220 211 207 207 206 201 197 192 188 185 182 176 162 164 170 179 180 184 189 187 184
238 246 234 227 228 227 238 232 234 233 239 234 226 260 244 229 229 233 239 239 240 238 234 227 217 210 206 205 202 198 192 188 187 183 182 180 185 189 192 184 183 182 187 186
237 234 233 231 232 226 240 236 223 226 236 246 226 245 251 214 228 228 231 231 233 234 230 227 218 213 208 201 196 195 191 188 187 187 187 188 192 194 184 178 179 179 183 187
259 250 244 247 245 225 213 204 208 217 227 239 227 229 250 214 223 223 226 226 227 234 232 227 218 208 201 193 188 186 184 186 189 189 188 191 190 186 180 180 178 179 178 182
261 235 227 237 225 198 200 195 192 196 210 232 206 218 242 230 215 227 232 229 229 233 232 222 213 205 198 189 186 183 183 183 185 188 191 192 192 186 185 182 182 179 177 178
257 243 204 215 226 212 212 214 220 220 218 213 189 219 215 137 212 243 253 246 224 214 223 224 215 207 198 191 188 183 185 186 184 185 189 190 188 182 184 186 182 182 181 179
268 263 302 274 257 223 206 220 240 268 247 223 202 210 215 187 216 226 243 267 319 325 325 238 212 206 201 193 189 186 185 184 184 183 181 183 183 181 182 182 183 180 177 171
285 274 282 302 241 234 236 216 207 219 223 223 211 215 211 178 200 226 258 294 326 0 16 356 214 203 202 195 187 182 184 182 181 180 181 178 180 184 182 179 180 176 173 170
288 265 273 270 226 224 201 203 225 227 250 247 224 200 136 191 205 226 262 303 306 346 3 341 142 147 160 167 171 169 175 174 171 173 177 172 174 179 178 177 180 175 170 170
296 272 266 265 279 278 240 220 216 226 224 241 252 201 72 22 17 7 354 356 343 357 358 356 55 91 112 130 142 156 164 168 169 167 169 167 165 168 173 176 177 171 172 174
300 268 274 239 176 138 258 235 231 247 255 233 230 211 58 6 10 11 8 0 353 352 12 20 84 91 88 113 132 146 154 167 167 164 163 161 162 166 171 174 171 169 172 174
313 262 258 267 304 314 285 277 243 226 236 242 242 258 304 343 349 348 350 349 346 339 358 10 52 73 69 94 127 136 149 162 162 163 164 164 165 167 169 169 169 169 169 171
309 266 270 284 292 286 291 291 265 232 240 244 259 268 291 317 317 322 330 347 356 356 356 354 10 38 57 77 104 122 141 155 162 161 165 169 165 161 160 163 164 162 164 168
321 282 284 278 286 283 302 309 281 259 251 247 262 271 309 313 321 326 328 340 340 333 333 337 348 7 40 67 93 116 129 147 164 165 168 166 161 157 160 162 159 158 161 164
282 268 265 269 295 276 287 303 289 260 252 257 259 277 316 312 322 319 319 328 323 317 314 317 329 339 3 40 78 99 126 137 158 163 162 160 156 156 162 160 158 161 163 165
257 251 250 277 270 238 5 355 310 284 300 322 298 306 312 307 306 314 334 331 319 324 326 330 351 14 21 33 56 89 128 136 141 148 152 155 160 159 160 160 164 165 165 170
243 233 244 259 253 269 332 354 336 288 286 342 315 309 315 327 313 327 357 339 319 320 329 338 3 31 37 52 70 100 114 124 128 136 147 152 157 158 161 167 170 167 166 170
278 209 236 251 255 274 349 336 320 263 265 358 337 326 330 334 295 337 356 350 352 3 9 18 34 45 48 45 70 91 97 102 108 125 142 143 151 160 169 172 168 164 165 169
342 283 254 256 254 294 351 335 328 240 346 342 338 335 336 326 320 341 351 1 12 21 29 39 49 51 42 44 79 85 80 73 75 104 118 119 126 144 158 154 155 157 155 154
333 328 288 257 255 306 350 354 5 343 337 339 344 345 343 342 356 6 11 18 27 34 39 42 48 45 37 43 65 72 61 49 66 91 95 97 99 105 121 127 132 143 146 146
348 340 320 322 12 357 351 357 350 345 340 344 344 343 351 3 10 15 20 29 36 37 37 39 48 48 39 37 48 67 56 59 75 88 91 91 86 81 90 115 130 132 134 145
340 338 317 312 352 349 355 358 357 356 350 346 347 349 360 7 12 20 32 36 37 33 33 37 47 49 41 36 40 48 52 62 76 78 79 89 93 89 83 83 104 131 149 161
330 327 321 309 331 337 359 356 351 353 356 360 3 7 12 23 24 32 38 37 37 36 33 37 45 47 42 36 38 37 41 57 71 72 73 76 83 92 86 79 66 83 108 178
341 322 319 321 330 318 321 337 342 347 354 357 4 12 18 26 32 36 39 37 37 38 36 38 41 44 40 37 37 32 34 45 59 67 65 68 74 78 87 93 76 59 63 66